User: anonymous   Login
Location: Unspecified
(40.9447°N, 78.9903°W)
Time: 09:33:25
(UTC-04:00)
Language:

CZ-3 Stage 3 - Orbit

View from above orbital plane
View from above orbital plane
View from above satellite
View from above satellite

Ground track
Ground track

The orbit data is extracted from the following two-line orbital elements,

1 14900U 84035B   21262.59725696 -.00000124  00000-0  19035-3 0  9995
2 14900  30.3838 225.4127 7150911 120.2754 327.9908  2.33938650251127
Epoch (UTC): 19 September 2021 14:20:03
Eccentricity: 0.7150911
inclination: 30.3838°
perigee height: 451 km
apogee height: 34732 km
right ascension of ascending node: 225.4127°
argument of perigee: 120.2754°
revolutions per day: 2.33938650
mean anomaly at epoch: 327.9908°
orbit number at epoch: 25112

The dashed part of the orbit path shows where the satellite is in the earth's shadow,  

DLR